ARIANE 5 R/B, 38553

Orbit data source: Space-Track

ARIANE 5 R/B, 38553 is space debris in HEO originally from a launch on Thu, 05 Jul 2012 UTC launched from the French Guiana (FRGUI). Debris objects in space refer to the collection of defunct objects orbiting the Earth. Examples of debris include non-operational satellites, rocket bodies, and fragments generated from explosions, collisions, or faulty payload assembly.

Loading next visibility...
Identifier
38553, 2012-035C
Orbit
HEO
Country
Flag of FRFR
Related business
Manufacturer
EADS/LV
Mission
Spacecraft
Bus & Motor
ESC-A, Unknown motor
Mass
~5,000 kg wet, ~5,000 kg dry
Launch date (UTC)
2012-07-05 (14 years ago)
Launch vehicle
Unknown
Launch site
French Guiana (FRGUI)
Object type
Payload
Rocket body
Debris
Shape & HBR
Cyl + 1 Nozzle, 3.5 m
Radar Cross Section
41.627 m², Large (>1 m²)

Expand to show TLE details & history
Last TLE update: 11 hours ago

TLE from 11 hours ago
0 ARIANE 5 R/B
1 38553U 12035C   26061.89233582  .00000951  00000-0  37519-3 0  9993
2 38553   6.5034  37.0935 7082823 190.7364 137.1746  2.52505885119483
Epoch: 2026-03-02T21:24Z
TLE epoch observation values (Epoch: 2026-03-02T21:24:57.814Z)
Latitude
-0.00002°
Longitude
-84.79079°
Altitude
30,964.958 km
Speed
1.962 km/s
True Right ascension
02h 28m 31s
True Declination
0° 00' 00"
Sunlit
Object was in daylight at epoch
Visualization orbit readout
Latitude
Unknown
Longitude
Unknown
Altitude
Unknown
Speed
Unknown
Apparent Right ascension
Unknown
Apparent Declination
Unknown
Sunlit
N/A
Visualization observer readout
Local Sidereal Time
12:06:39
Azimuth
Unknown
Elevation
Unknown
Doppler factor
Unknown
Orbital elements
Apogee altitude
32,545.807 km
Perigee altitude
268.776 km
Semi-major axis
22,785.429 km
Eccentricity
0.70828
Inclination
6.5034°
RAAN
37.0935°
Arg. of periapsis
190.7364°
True anomaly
169.3542°
Mean anomaly
137.1746°
Eccentric anomaly
154.5887°
Mean motion
0.63104 °/min
Orbital period
570.49 mins
BSTAR
0.00037519
Loading maneuver chart data...
Computing Atmospheric mass density...
Loading historical data...
Loading historical data...
Loading historical data...
Loading historical data...
Loading historical data...
Loading historical data...
Loading historical data...

Documentation

Showing up to 5 results
|